When you browse on this site, cookies collect data to enhance your experience and personalize the content and advertising you see.
Visit our Privacy Policy to learn more. By continuing to use the site, you agree to this use of cookies and data.
  • In Latvia
  • List of Countries
  • For 7 days
  • Water Temperature
  • Satellite Maps
  • Weather Map
  • Weather Widgets
  • user-avatar
    Login

    Hourly Weather Ogre

    Today, 23 February, Saturday

    Time Temperature Precipitation Wind Pressure Humidity
    00:00 -6°C° 0 mm 1 mps 780 mmHg 68%
    01:00 -6°C° 0 mm 1 mps 780 mmHg 67%
    02:00 -6°C° 0 mm 1 mps 780 mmHg 67%
    03:00 -6°C° 0 mm 2 mps 779 mmHg 62%
    04:00 -6°C° 0 mm 2 mps 779 mmHg 57%
    05:00 -6°C° 0 mm 2 mps 779 mmHg 52%
    06:00 -6°C° 0 mm 3 mps 778 mmHg 50%
    07:00 -6°C° 0 mm 3 mps 778 mmHg 49%
    08:00 -5°C° 0 mm 3 mps 778 mmHg 47%
    09:00 -5°C° 0.1 mm 4 mps 777 mmHg 54%
    10:00 -4°C° 0.1 mm 4 mps 777 mmHg 60%
    11:00 -4°C° 0.1 mm 4 mps 776 mmHg 67%
    12:00 -4°C° 0 mm 5 mps 776 mmHg 67%
    13:00 -2°C° 0 mm 5 mps 775 mmHg 67%
    14:00 -1°C° 0 mm 5 mps 774 mmHg 67%
    15:00 -1°C° 0 mm 5 mps 774 mmHg 70%
    16:00 -1°C° 0 mm 4 mps 774 mmHg 72%
    17:00 -1°C° 0 mm 4 mps 774 mmHg 75%
    18:00 -1°C° 0 mm 4 mps 773 mmHg 77%
    19:00 -1°C° 0 mm 4 mps 773 mmHg 79%
    20:00 0°C° 0 mm 3 mps 773 mmHg 81%
    21:00 -1°C° 0 mm 3 mps 773 mmHg 83%
    22:00 -1°C° 0 mm 3 mps 772 mmHg 85%
    23:00 -1°C° 0 mm 3 mps 772 mmHg 88%

    Tomorrow, 24 February, Sunday

    Time Temperature Precipitation Wind Pressure Humidity
    00:00 -1°C° 0 mm 3 mps 772 mmHg 89%
    01:00 -1°C° 0 mm 2 mps 772 mmHg 90%
    02:00 -1°C° 0 mm 2 mps 772 mmHg 91%
    03:00 -1°C° 0 mm 2 mps 772 mmHg 92%
    04:00 -1°C° 0 mm 2 mps 771 mmHg 93%
    05:00 -1°C° 0 mm 2 mps 771 mmHg 95%
    06:00 -1°C° 0 mm 2 mps 771 mmHg 95%
    07:00 -1°C° 0 mm 2 mps 771 mmHg 96%
    08:00 +2°C° 0 mm 1 mps 771 mmHg 97%
    09:00 +1°C° 0 mm 2 mps 771 mmHg 94%
    10:00 +2°C° 0 mm 2 mps 771 mmHg 90%
    11:00 +3°C° 0 mm 2 mps 771 mmHg 87%
    12:00 +4°C° 0 mm 2 mps 770 mmHg 85%
    13:00 +4°C° 0 mm 2 mps 770 mmHg 82%
    14:00 +4°C° 0 mm 3 mps 770 mmHg 79%
    15:00 +4°C° 0 mm 2 mps 769 mmHg 83%
    16:00 +4°C° 0 mm 2 mps 769 mmHg 87%
    17:00 +3°C° 0 mm 2 mps 768 mmHg 91%
    18:00 +2°C° 0 mm 3 mps 768 mmHg 92%
    19:00 +2°C° 0 mm 3 mps 768 mmHg 93%
    20:00 +2°C° 0 mm 3 mps 768 mmHg 94%
    21:00 +2°C° 0 mm 3 mps 768 mmHg 92%
    22:00 +1°C° 0 mm 4 mps 768 mmHg 91%
    23:00 0°C° 0 mm 4 mps 769 mmHg 89%

    Day after tomorrow, 25 February, Monday

    Time Temperature Precipitation Wind Pressure Humidity
    00:00 0°C° 0 mm 4 mps 769 mmHg 89%
    01:00 0°C° 0 mm 4 mps 769 mmHg 89%
    02:00 +1°C° 0 mm 3 mps 769 mmHg 89%
    03:00 +1°C° 0 mm 3 mps 769 mmHg 87%
    04:00 0°C° 0 mm 4 mps 770 mmHg 85%
    05:00 0°C° 0 mm 4 mps 770 mmHg 83%
    06:00 0°C° 0 mm 4 mps 770 mmHg 83%
    07:00 0°C° 0 mm 4 mps 770 mmHg 82%
    08:00 -1°C° 0 mm 4 mps 770 mmHg 82%
    09:00 +1°C° 0 mm 4 mps 770 mmHg 78%
    10:00 +2°C° 0 mm 5 mps 770 mmHg 74%
    11:00 +3°C° 0 mm 5 mps 770 mmHg 70%
    12:00 +3°C° 0 mm 5 mps 770 mmHg 69%
    13:00 +5°C° 0 mm 5 mps 770 mmHg 68%
    14:00 +5°C° 0 mm 5 mps 769 mmHg 66%
    15:00 +3°C° 0 mm 5 mps 769 mmHg 70%
    16:00 +4°C° 0 mm 4 mps 769 mmHg 73%
    17:00 +3°C° 0 mm 3 mps 769 mmHg 77%
    18:00 +2°C° 0 mm 3 mps 768 mmHg 81%
    19:00 +2°C° 0 mm 3 mps 768 mmHg 86%
    20:00 +1°C° 0 mm 3 mps 768 mmHg 91%
    21:00 +2°C° 0 mm 2 mps 768 mmHg 92%
    22:00 +1°C° 0 mm 2 mps 768 mmHg 93%
    23:00 +1°C° 0 mm 2 mps 768 mmHg 95%

    26 February, Tuesday

    Time Temperature Precipitation Wind Pressure Humidity
    00:00 +1°C° 0 mm 2 mps 767 mmHg 94%
    01:00 +1°C° 0 mm 2 mps 767 mmHg 94%
    02:00 +1°C° 0 mm 2 mps 767 mmHg 93%
    03:00 +1°C° 0.4 mm 2 mps 766 mmHg 93%
    04:00 +1°C° 0.4 mm 2 mps 766 mmHg 92%
    05:00 +2°C° 0.4 mm 2 mps 765 mmHg 91%
    06:00 +1°C° 0 mm 3 mps 765 mmHg 91%
    07:00 +1°C° 0 mm 3 mps 764 mmHg 91%
    08:00 +1°C° 0 mm 3 mps 764 mmHg 91%
    09:00 +1°C° 0 mm 4 mps 764 mmHg 87%
    10:00 +2°C° 0 mm 5 mps 764 mmHg 84%
    11:00 +3°C° 0 mm 6 mps 764 mmHg 80%
    12:00 +3°C° 0 mm 6 mps 764 mmHg 75%
    13:00 +3°C° 0 mm 6 mps 764 mmHg 71%
    14:00 +4°C° 0 mm 6 mps 764 mmHg 66%
    15:00 +3°C° 0 mm 6 mps 764 mmHg 68%
    16:00 +2°C° 0 mm 5 mps 764 mmHg 69%
    17:00 +2°C° 0 mm 5 mps 765 mmHg 71%
    18:00 +1°C° 0 mm 5 mps 765 mmHg 74%
    19:00 +1°C° 0 mm 4 mps 766 mmHg 76%
    20:00 0°C° 0 mm 4 mps 766 mmHg 79%
    21:00 +1°C° 0 mm 3 mps 766 mmHg 82%
    22:00 0°C° 0 mm 3 mps 766 mmHg 85%
    23:00 -1°C° 0 mm 2 mps 767 mmHg 88%

    27 February, Wednesday

    Time Temperature Precipitation Wind Pressure Humidity
    00:00 -1°C° 0 mm 2 mps 767 mmHg 90%
    01:00 -1°C° 0 mm 2 mps 767 mmHg 91%
    02:00 -1°C° 0 mm 2 mps 767 mmHg 92%
    03:00 +1°C° 0 mm 1 mps 766 mmHg 93%
    04:00 0°C° 0 mm 1 mps 766 mmHg 93%
    05:00 0°C° 0 mm 1 mps 765 mmHg 93%
    06:00 +1°C° 0 mm 1 mps 765 mmHg 91%
    07:00 -1°C° 0 mm 2 mps 764 mmHg 88%
    08:00 -1°C° 0 mm 2 mps 763 mmHg 86%
    09:00 +1°C° 0 mm 3 mps 762 mmHg 78%
    10:00 +2°C° 0 mm 3 mps 761 mmHg 71%
    11:00 +3°C° 0 mm 4 mps 760 mmHg 63%
    12:00 +4°C° 0 mm 4 mps 758 mmHg 66%
    13:00 +6°C° 0 mm 5 mps 757 mmHg 68%
    14:00 +7°C° 0 mm 5 mps 756 mmHg 71%
    15:00 +6°C° 0 mm 5 mps 755 mmHg 72%
    16:00 +5°C° 0 mm 5 mps 754 mmHg 74%
    17:00 +5°C° 0 mm 4 mps 753 mmHg 76%
    18:00 +4°C° 0 mm 4 mps 753 mmHg 75%
    19:00 +3°C° 0 mm 4 mps 752 mmHg 74%
    20:00 +3°C° 0 mm 4 mps 752 mmHg 73%
    21:00 +3°C° 0 mm 4 mps 751 mmHg 72%
    22:00 +1°C° 0 mm 4 mps 750 mmHg 71%
    23:00 +1°C° 0 mm 4 mps 749 mmHg 70%

    28 February, Thursday

    Time Temperature Precipitation Wind Pressure Humidity
    00:00 +1°C° 0 mm 4 mps 749 mmHg 71%
    01:00 +1°C° 0 mm 4 mps 748 mmHg 72%
    02:00 +1°C° 0 mm 5 mps 748 mmHg 73%
    03:00 +1°C° 0 mm 5 mps 747 mmHg 74%
    04:00 +1°C° 0 mm 5 mps 747 mmHg 75%
    05:00 0°C° 0 mm 5 mps 746 mmHg 76%
    06:00 +1°C° 0 mm 5 mps 746 mmHg 75%
    07:00 +1°C° 0 mm 5 mps 746 mmHg 75%
    08:00 +1°C° 0 mm 5 mps 745 mmHg 75%
    09:00 +1°C° 0 mm 5 mps 745 mmHg 72%
    10:00 +2°C° 0 mm 6 mps 745 mmHg 70%
    11:00 +2°C° 0 mm 6 mps 745 mmHg 67%
    12:00 +2°C° 0.2 mm 6 mps 745 mmHg 68%
    13:00 +2°C° 0.2 mm 6 mps 745 mmHg 68%
    14:00 0°C° 0.2 mm 7 mps 744 mmHg 68%
    15:00 0°C° 0.1 mm 7 mps 745 mmHg 67%
    16:00 0°C° 0.1 mm 7 mps 745 mmHg 66%
    17:00 -1°C° 0.1 mm 7 mps 745 mmHg 65%
    18:00 -1°C° 0 mm 7 mps 745 mmHg 65%
    19:00 -2°C° 0 mm 7 mps 745 mmHg 65%
    20:00 -2°C° 0 mm 7 mps 745 mmHg 66%
    21:00 -2°C° 0 mm 7 mps 745 mmHg 64%
    22:00 -3°C° 0 mm 7 mps 745 mmHg 61%
    23:00 -3°C° 0 mm 7 mps 745 mmHg 59%
    Show more